Stündliche Wetter Kirowckoe

Heute, 30 September, Mittwoch

Zeit Temperatur Niederschläge Wind Luftdruck Luftfeuchtigkeit
00:00 +16°C° 0 mm 8 m/S 739 mmHg 40%
01:00 +15°C° 0 mm 8 m/S 739 mmHg 41%
02:00 +15°C° 0 mm 9 m/S 739 mmHg 42%
03:00 +13°C° 0 mm 9 m/S 739 mmHg 44%
04:00 +12°C° 0 mm 9 m/S 738 mmHg 48%
05:00 +12°C° 0 mm 9 m/S 738 mmHg 51%
06:00 +11°C° 0 mm 10 m/S 738 mmHg 55%
07:00 +12°C° 0 mm 10 m/S 738 mmHg 53%
08:00 +13°C° 0 mm 11 m/S 738 mmHg 51%
09:00 +14°C° 0 mm 12 m/S 738 mmHg 51%
10:00 +15°C° 0 mm 12 m/S 738 mmHg 44%
11:00 +18°C° 0 mm 12 m/S 738 mmHg 38%
12:00 +21°C° 0 mm 11 m/S 737 mmHg 32%
13:00 +21°C° 0 mm 12 m/S 737 mmHg 29%
14:00 +22°C° 0 mm 12 m/S 737 mmHg 27%
15:00 +23°C° 0 mm 12 m/S 737 mmHg 24%
16:00 +23°C° 0 mm 11 m/S 737 mmHg 25%
17:00 +22°C° 0 mm 10 m/S 737 mmHg 26%
18:00 +22°C° 0 mm 9 m/S 737 mmHg 27%
19:00 +21°C° 0.1 mm 9 m/S 737 mmHg 29%
20:00 +19°C° 0.1 mm 9 m/S 738 mmHg 32%
21:00 +18°C° 0.1 mm 10 m/S 738 mmHg 34%
22:00 +17°C° 0 mm 10 m/S 738 mmHg 34%
23:00 +17°C° 0 mm 10 m/S 738 mmHg 35%

Morgen, 1 Oktober, Donnerstag

Zeit Temperatur Niederschläge Wind Luftdruck Luftfeuchtigkeit
00:00 +16°C° 0 mm 9 m/S 738 mmHg 36%
01:00 +15°C° 0 mm 9 m/S 739 mmHg 38%
02:00 +15°C° 0 mm 9 m/S 739 mmHg 40%
03:00 +13°C° 0 mm 9 m/S 739 mmHg 42%
04:00 +13°C° 0.1 mm 8 m/S 739 mmHg 45%
05:00 +13°C° 0.1 mm 8 m/S 739 mmHg 47%
06:00 +12°C° 0.1 mm 8 m/S 739 mmHg 49%
07:00 +13°C° 0 mm 9 m/S 739 mmHg 48%
08:00 +13°C° 0 mm 9 m/S 739 mmHg 48%
09:00 +15°C° 0 mm 9 m/S 739 mmHg 47%
10:00 +17°C° 0 mm 9 m/S 739 mmHg 43%
11:00 +18°C° 0 mm 9 m/S 740 mmHg 39%
12:00 +21°C° 0 mm 9 m/S 740 mmHg 34%
13:00 +21°C° 0 mm 9 m/S 739 mmHg 32%
14:00 +22°C° 0 mm 8 m/S 739 mmHg 30%
15:00 +22°C° 0 mm 7 m/S 739 mmHg 28%
16:00 +21°C° 0 mm 7 m/S 739 mmHg 29%
17:00 +21°C° 0 mm 6 m/S 739 mmHg 29%
18:00 +21°C° 0 mm 6 m/S 739 mmHg 30%
19:00 +20°C° 0.1 mm 7 m/S 739 mmHg 32%
20:00 +18°C° 0.1 mm 7 m/S 740 mmHg 34%
21:00 +18°C° 0.1 mm 8 m/S 740 mmHg 36%
22:00 +18°C° 0 mm 8 m/S 740 mmHg 36%
23:00 +17°C° 0 mm 8 m/S 740 mmHg 36%

übermorgen, 2 Oktober, Freitag

Zeit Temperatur Niederschläge Wind Luftdruck Luftfeuchtigkeit
00:00 +17°C° 0 mm 8 m/S 740 mmHg 36%
01:00 +16°C° 0 mm 8 m/S 740 mmHg 39%
02:00 +16°C° 0 mm 7 m/S 740 mmHg 41%
03:00 +15°C° 0 mm 7 m/S 740 mmHg 44%
04:00 +14°C° 0 mm 7 m/S 740 mmHg 48%
05:00 +14°C° 0 mm 6 m/S 740 mmHg 52%
06:00 +13°C° 0 mm 6 m/S 740 mmHg 56%
07:00 +14°C° 0 mm 6 m/S 741 mmHg 54%
08:00 +14°C° 0 mm 7 m/S 741 mmHg 52%
09:00 +15°C° 0 mm 7 m/S 741 mmHg 50%
10:00 +17°C° 0 mm 7 m/S 741 mmHg 46%
11:00 +19°C° 0 mm 6 m/S 742 mmHg 43%
12:00 +21°C° 0 mm 6 m/S 742 mmHg 40%
13:00 +21°C° 0 mm 6 m/S 742 mmHg 39%
14:00 +22°C° 0 mm 6 m/S 742 mmHg 38%
15:00 +23°C° 0 mm 6 m/S 742 mmHg 37%
16:00 +21°C° 0 mm 5 m/S 742 mmHg 40%
17:00 +20°C° 0 mm 4 m/S 742 mmHg 42%
18:00 +19°C° 0 mm 3 m/S 742 mmHg 45%
19:00 +18°C° 0 mm 3 m/S 742 mmHg 48%
20:00 +17°C° 0 mm 3 m/S 743 mmHg 51%
21:00 +16°C° 0 mm 3 m/S 743 mmHg 53%
22:00 +14°C° 0 mm 3 m/S 743 mmHg 54%
23:00 +14°C° 0 mm 3 m/S 743 mmHg 55%

3 Oktober, Samstag

Zeit Temperatur Niederschläge Wind Luftdruck Luftfeuchtigkeit
00:00 +13°C° 0 mm 3 m/S 743 mmHg 56%
01:00 +13°C° 0 mm 3 m/S 743 mmHg 59%
02:00 +13°C° 0 mm 4 m/S 744 mmHg 62%
03:00 +13°C° 0 mm 4 m/S 744 mmHg 65%
04:00 +12°C° 0 mm 4 m/S 744 mmHg 72%
05:00 +12°C° 0 mm 4 m/S 744 mmHg 78%
06:00 +11°C° 0 mm 4 m/S 744 mmHg 85%
07:00 +12°C° 0 mm 5 m/S 744 mmHg 77%
08:00 +13°C° 0 mm 5 m/S 745 mmHg 70%
09:00 +15°C° 0 mm 5 m/S 745 mmHg 62%
10:00 +16°C° 0 mm 5 m/S 745 mmHg 57%
11:00 +19°C° 0 mm 5 m/S 745 mmHg 52%
12:00 +20°C° 0 mm 5 m/S 745 mmHg 46%
13:00 +21°C° 0 mm 4 m/S 745 mmHg 43%
14:00 +21°C° 0 mm 4 m/S 745 mmHg 40%
15:00 +22°C° 0 mm 4 m/S 745 mmHg 37%
16:00 +21°C° 0 mm 3 m/S 745 mmHg 39%
17:00 +20°C° 0 mm 3 m/S 744 mmHg 41%
18:00 +18°C° 0 mm 3 m/S 744 mmHg 43%
19:00 +18°C° 0 mm 3 m/S 745 mmHg 43%
20:00 +17°C° 0 mm 3 m/S 745 mmHg 43%
21:00 +15°C° 0 mm 4 m/S 745 mmHg 43%
22:00 +14°C° 0 mm 3 m/S 745 mmHg 46%
23:00 +14°C° 0 mm 3 m/S 745 mmHg 48%

4 Oktober, Sonntag

Zeit Temperatur Niederschläge Wind Luftdruck Luftfeuchtigkeit
00:00 +14°C° 0 mm 3 m/S 745 mmHg 51%
01:00 +13°C° 0 mm 3 m/S 745 mmHg 54%
02:00 +13°C° 0 mm 3 m/S 745 mmHg 56%
03:00 +13°C° 0 mm 2 m/S 745 mmHg 59%
04:00 +13°C° 0 mm 2 m/S 745 mmHg 59%
05:00 +13°C° 0 mm 2 m/S 745 mmHg 60%
06:00 +13°C° 0 mm 2 m/S 745 mmHg 60%
07:00 +13°C° 0 mm 3 m/S 745 mmHg 57%
08:00 +14°C° 0 mm 3 m/S 745 mmHg 54%
09:00 +17°C° 0 mm 3 m/S 745 mmHg 51%
10:00 +19°C° 0 mm 3 m/S 745 mmHg 48%
11:00 +20°C° 0 mm 3 m/S 745 mmHg 45%
12:00 +22°C° 0 mm 3 m/S 745 mmHg 41%
13:00 +24°C° 0 mm 3 m/S 745 mmHg 39%
14:00 +24°C° 0 mm 3 m/S 745 mmHg 38%
15:00 +25°C° 0 mm 3 m/S 745 mmHg 36%
16:00 +24°C° 0 mm 2 m/S 745 mmHg 39%
17:00 +23°C° 0 mm 2 m/S 744 mmHg 43%
18:00 +20°C° 0 mm 2 m/S 744 mmHg 46%
19:00 +19°C° 0 mm 2 m/S 744 mmHg 50%
20:00 +18°C° 0 mm 2 m/S 745 mmHg 53%
21:00 +17°C° 0 mm 3 m/S 745 mmHg 57%
22:00 +17°C° 0 mm 3 m/S 745 mmHg 52%
23:00 +16°C° 0 mm 3 m/S 745 mmHg 47%

5 Oktober, Montag

Zeit Temperatur Niederschläge Wind Luftdruck Luftfeuchtigkeit
00:00 +16°C° 0 mm 3 m/S 744 mmHg 42%
01:00 +14°C° 0 mm 3 m/S 744 mmHg 43%
02:00 +15°C° 0 mm 2 m/S 744 mmHg 45%
03:00 +14°C° 0 mm 2 m/S 744 mmHg 46%
04:00 +14°C° 0 mm 2 m/S 744 mmHg 46%
05:00 +14°C° 0 mm 2 m/S 745 mmHg 46%
06:00 +14°C° 0 mm 2 m/S 745 mmHg 47%
07:00 +15°C° 0 mm 2 m/S 745 mmHg 43%
08:00 +17°C° 0 mm 3 m/S 745 mmHg 39%
09:00 +18°C° 0 mm 3 m/S 745 mmHg 35%
10:00 +20°C° 0 mm 4 m/S 745 mmHg 33%
11:00 +22°C° 0 mm 4 m/S 745 mmHg 31%
12:00 +23°C° 0 mm 4 m/S 745 mmHg 29%
13:00 +25°C° 0 mm 4 m/S 745 mmHg 29%
14:00 +25°C° 0 mm 4 m/S 745 mmHg 29%
15:00 +26°C° 0 mm 4 m/S 745 mmHg 28%
16:00 +24°C° 0 mm 3 m/S 745 mmHg 31%
17:00 +22°C° 0 mm 3 m/S 745 mmHg 34%
18:00 +20°C° 0 mm 3 m/S 744 mmHg 37%
19:00 +19°C° 0 mm 3 m/S 744 mmHg 40%
20:00 +18°C° 0 mm 3 m/S 744 mmHg 42%
21:00 +17°C° 0 mm 4 m/S 745 mmHg 44%
22:00 +17°C° 0 mm 4 m/S 744 mmHg 38%
23:00 +17°C° 0 mm 4 m/S 744 mmHg 33%
Mehr zeigen